| time (UTC) | temp C | wind direction | speed KPH | gust KPH | rain 1hr cm | rain 24hr cm | rain mn cm | humidity % | barometer mb |
| 20260906080519 | 28 | 330 | 4.8 | 6.4 | 0.00 | 0.00 | 0.00 | 46 | 1017.2 |
| 20260906080035 | 28 | 307 | 3.2 | 8.0 | 0.00 | 0.00 | 0.00 | 47 | 1017.2 |
| 20260906075518 | 28 | 328 | 3.2 | 9.7 | 0.00 | 0.00 | 0.00 | 49 | 1017.2 |
| 20260906075021 | 28 | 309 | 4.8 | 9.7 | 0.00 | 0.00 | 0.00 | 46 | 1017.2 |
| 20260906074534 | 28 | 336 | 4.8 | 9.7 | 0.00 | 0.00 | 0.00 | 48 | 1017.1 |
| 20260906074019 | 27 | 312 | 4.8 | 11.3 | 0.00 | 0.00 | 0.00 | 48 | 1017.1 |
| 20260906073519 | 27 | 316 | 4.8 | 11.3 | 0.00 | 0.00 | 0.00 | 49 | 1017.1 |
| 20260906073041 | 27 | 319 | 4.8 | 11.3 | 0.00 | 0.00 | 0.00 | 48 | 1017.1 |
| 20260906072518 | 27 | 330 | 6.4 | 11.3 | 0.00 | 0.00 | 0.00 | 47 | 1017.0 |
| 20260906072019 | 27 | 307 | 4.8 | 9.7 | 0.00 | 0.00 | 0.00 | 49 | 1017.0 |
| 20260906071020 | 27 | 347 | 1.6 | 8.0 | 0.00 | 0.00 | 0.00 | 52 | 1016.8 |
| 20260906070522 | 27 | 348 | 4.8 | 8.0 | 0.00 | 0.00 | 0.00 | 53 | 1016.8 |
| 20260906070035 | 27 | 338 | 4.8 | 8.0 | 0.00 | 0.00 | 0.00 | 53 | 1016.8 |
| 20260906065519 | 27 | 321 | 3.2 | 9.7 | 0.00 | 0.00 | 0.00 | 54 | 1016.8 |
| 20260906065020 | 26 | 323 | 4.8 | 9.7 | 0.00 | 0.00 | 0.00 | 52 | 1016.7 |
| 20260906064531 | 27 | 310 | 3.2 | 6.4 | 0.00 | 0.00 | 0.00 | 56 | 1016.7 |
| 20260906064018 | 26 | 337 | 3.2 | 6.4 | 0.00 | 0.00 | 0.00 | 55 | 1016.6 |
| 20260906063517 | 27 | 332 | 3.2 | 8.0 | 0.00 | 0.00 | 0.00 | 53 | 1016.6 |
| 20260906063036 | 27 | 319 | 4.8 | 8.0 | 0.00 | 0.00 | 0.00 | 52 | 1016.6 |
| 20260906062519 | 27 | 348 | 3.2 | 8.0 | 0.00 | 0.00 | 0.00 | 52 | 1016.6 |
| 20260906062018 | 27 | 330 | 1.6 | 4.8 | 0.00 | 0.00 | 0.00 | 51 | 1016.5 |
| 20260906061534 | 27 | 314 | 1.6 | 4.8 | 0.00 | 0.00 | 0.00 | 52 | 1016.4 |
| 20260906061017 | 27 | 353 | 0.0 | 3.2 | 0.00 | 0.00 | 0.00 | 51 | 1016.4 |
| 20260906060518 | 27 | 0 | 0.0 | 3.2 | 0.00 | 0.00 | 0.00 | 53 | 1016.4 |
| 20260906060049 | 26 | 323 | 0.0 | 3.2 | 0.00 | 0.00 | 0.00 | 52 | 1016.4 |
| 20260906055519 | 26 | 323 | 0.0 | 3.2 | 0.00 | 0.00 | 0.00 | 53 | 1016.4 |
| 20260906055022 | 26 | 305 | 0.0 | 4.8 | 0.00 | 0.00 | 0.00 | 52 | 1016.4 |
| 20260906054019 | 26 | 348 | 1.6 | 4.8 | 0.00 | 0.00 | 0.00 | 55 | 1016.4 |
| 20260906053521 | 26 | 323 | 1.6 | 4.8 | 0.00 | 0.00 | 0.00 | 53 | 1016.4 |
| 20260906053037 | 27 | 160 | 0.0 | 1.6 | 0.00 | 0.00 | 0.00 | 49 | 1016.3 |
| 20260906052522 | 26 | 0 | 0.0 | 3.2 | 0.00 | 0.00 | 0.00 | 51 | 1016.2 |
| 20260906052019 | 26 | 167 | 1.6 | 3.2 | 0.00 | 0.00 | 0.00 | 52 | 1016.3 |
| 20260906051535 | 25 | 172 | 0.0 | 3.2 | 0.00 | 0.00 | 0.00 | 53 | 1016.2 |
| 20260906051018 | 25 | 185 | 0.0 | 3.2 | 0.00 | 0.00 | 0.00 | 54 | 1016.1 |
| 20260906050517 | 25 | 0 | 0.0 | 3.2 | 0.00 | 0.00 | 0.00 | 54 | 1016.2 |
| 20260906050038 | 24 | 0 | 0.0 | 1.6 | 0.00 | 0.00 | 0.00 | 55 | 1016.3 |
| 20260906045524 | 23 | 205 | 0.0 | 0.0 | 0.00 | 0.00 | 0.00 | 56 | 1016.3 |
| 20260906045022 | 22 | 0 | 0.0 | 1.6 | 0.00 | 0.00 | 0.00 | 57 | 1016.3 |
| 20260906044532 | 22 | 0 | 0.0 | 1.6 | 0.00 | 0.00 | 0.00 | 57 | 1016.1 |
| 20260906044021 | 22 | 0 | 0.0 | 1.6 | 0.00 | 0.00 | 0.00 | 58 | 1016.1 |
| 20260906043519 | 22 | 238 | 0.0 | 1.6 | 0.00 | 0.00 | 0.00 | 59 | 1016.1 |
| 20260906043039 | 21 | 238 | 0.0 | 3.2 | 0.00 | 0.00 | 0.00 | 60 | 1016.1 |
| 20260906042515 | 21 | 0 | 0.0 | 4.8 | 0.00 | 0.00 | 0.00 | 61 | 1016.1 |
| 20260906042019 | 20 | 238 | 1.6 | 4.8 | 0.00 | 0.00 | 0.00 | 60 | 1016.0 |
| 20260906041536 | 20 | 229 | 1.6 | 4.8 | 0.00 | 0.00 | 0.00 | 60 | 1015.9 |
| 20260906041019 | 20 | 252 | 1.6 | 3.2 | 0.00 | 0.00 | 0.00 | 60 | 1015.8 |
| 20260906040518 | 20 | 229 | 1.6 | 3.2 | 0.00 | 0.00 | 0.00 | 61 | 1015.8 |
| 20260906040038 | 20 | 243 | 1.6 | 4.8 | 0.00 | 0.00 | 0.00 | 61 | 1015.8 |
| 20260906035519 | 20 | 169 | 1.6 | 4.8 | 0.00 | 0.00 | 0.00 | 61 | 1015.8 |
| 20260906035017 | 20 | 200 | 1.6 | 3.2 | 0.00 | 0.00 | 0.00 | 61 | 1015.8 |
| 20260906034536 | 21 | 215 | 0.0 | 3.2 | 0.00 | 0.00 | 0.00 | 60 | 1015.7 |
| 20260906034015 | 21 | 229 | 0.0 | 3.2 | 0.00 | 0.00 | 0.00 | 60 | 1015.7 |
| 20260906033515 | 21 | 229 | 0.0 | 3.2 | 0.00 | 0.00 | 0.00 | 60 | 1015.6 |
| 20260906033036 | 21 | 0 | 0.0 | 1.6 | 0.00 | 0.00 | 0.00 | 60 | 1015.6 |
| 20260906032517 | 21 | 224 | 0.0 | 1.6 | 0.00 | 0.00 | 0.00 | 61 | 1015.5 |
| 20260906032021 | 21 | 0 | 0.0 | 1.6 | 0.00 | 0.00 | 0.00 | 62 | 1015.6 |
| 20260906031604 | 21 | 0 | 0.0 | 3.2 | 0.00 | 0.00 | 0.00 | 61 | 1015.6 |
| 20260906031017 | 21 | 0 | 0.0 | 4.8 | 0.00 | 0.00 | 0.00 | 59 | 1015.6 |
| 20260906030517 | 21 | 0 | 1.6 | 4.8 | 0.00 | 0.00 | 0.00 | 60 | 1015.6 |
| 20260906030037 | 21 | 219 | 1.6 | 4.8 | 0.00 | 0.00 | 0.00 | 60 | 1015.3 |
| 20260906025521 | 21 | 215 | 1.6 | 4.8 | 0.00 | 0.00 | 0.00 | 61 | 1015.4 |
| 20260906025018 | 20 | 217 | 0.0 | 3.2 | 0.00 | 0.00 | 0.00 | 61 | 1015.5 |
| 20260906024541 | 20 | 214 | 1.6 | 3.2 | 0.00 | 0.00 | 0.00 | 61 | 1015.5 |
| 20260906024019 | 20 | 217 | 0.0 | 3.2 | 0.00 | 0.00 | 0.00 | 61 | 1015.5 |
| 20260906023519 | 20 | 232 | 1.6 | 3.2 | 0.00 | 0.00 | 0.00 | 61 | 1015.4 |
| 20260906023045 | 21 | 209 | 0.0 | 4.8 | 0.00 | 0.00 | 0.00 | 60 | 1015.4 |
| 20260906022518 | 21 | 229 | 1.6 | 4.8 | 0.00 | 0.00 | 0.00 | 60 | 1015.4 |
| 20260906022015 | 21 | 218 | 1.6 | 4.8 | 0.00 | 0.00 | 0.00 | 59 | 1015.4 |
| 20260906021533 | 21 | 202 | 0.0 | 1.6 | 0.00 | 0.00 | 0.00 | 59 | 1015.4 |
| 20260906021024 | 21 | 220 | 0.0 | 3.2 | 0.00 | 0.00 | 0.00 | 58 | 1015.5 |
| 20260906020517 | 21 | 0 | 0.0 | 3.2 | 0.00 | 0.00 | 0.00 | 57 | 1015.5 |
| 20260906015518 | 21 | 0 | 0.0 | 3.2 | 0.00 | 0.00 | 0.00 | 57 | 1015.6 |
| 20260906015019 | 21 | 200 | 1.6 | 3.2 | 0.00 | 0.00 | 0.00 | 57 | 1015.5 |
| 20260906014536 | 21 | 229 | 1.6 | 3.2 | 0.00 | 0.00 | 0.00 | 57 | 1015.5 |
| 20260906014024 | 21 | 224 | 0.0 | 3.2 | 0.00 | 0.00 | 0.00 | 57 | 1015.6 |
| 20260906013520 | 21 | 169 | 1.6 | 4.8 | 0.00 | 0.00 | 0.00 | 57 | 1015.5 |
| 20260906012517 | 21 | 241 | 1.6 | 4.8 | 0.00 | 0.00 | 0.00 | 58 | 1015.6 |
| 20260906012022 | 21 | 217 | 0.0 | 3.2 | 0.00 | 0.00 | 0.00 | 58 | 1015.6 |
| 20260906011535 | 21 | 0 | 0.0 | 3.2 | 0.00 | 0.00 | 0.00 | 58 | 1015.7 |
| 20260906011017 | 21 | 205 | 1.6 | 3.2 | 0.00 | 0.00 | 0.00 | 58 | 1015.6 |
| 20260906010519 | 21 | 200 | 1.6 | 3.2 | 0.00 | 0.00 | 0.00 | 58 | 1015.7 |
| 20260906010034 | 21 | 217 | 1.6 | 3.2 | 0.00 | 0.00 | 0.00 | 59 | 1015.7 |
| 20260906005521 | 21 | 238 | 1.6 | 3.2 | 0.00 | 0.00 | 0.00 | 59 | 1015.7 |
| 20260906005021 | 21 | 0 | 0.0 | 3.2 | 0.00 | 0.00 | 0.00 | 58 | 1015.6 |
| 20260906004024 | 21 | 218 | 1.6 | 4.8 | 0.00 | 0.00 | 0.00 | 58 | 1015.6 |
| 20260906003518 | 21 | 241 | 1.6 | 4.8 | 0.00 | 0.00 | 0.00 | 58 | 1015.6 |
| 20260906002517 | 21 | 159 | 1.6 | 3.2 | 0.00 | 0.00 | 0.00 | 58 | 1015.6 |
| 20260906002016 | 21 | 0 | 0.0 | 3.2 | 0.00 | 0.00 | 0.00 | 58 | 1015.8 |
| 20260906001543 | 21 | 196 | 0.0 | 3.2 | 0.00 | 0.00 | 0.00 | 58 | 1015.7 |
| 20260906001023 | 21 | 231 | 0.0 | 3.2 | 0.00 | 0.00 | 0.00 | 58 | 1015.7 |
| 20260906000519 | 21 | 203 | 0.0 | 3.2 | 0.00 | 0.00 | 0.00 | 57 | 1015.7 |
| 20260905235517 | 22 | 219 | 1.6 | 3.2 | 0.00 | 0.00 | 0.00 | 56 | 1015.8 |
| 20260905235024 | 22 | 172 | 1.6 | 3.2 | 0.00 | 0.00 | 0.00 | 56 | 1015.8 |
| 20260905234018 | 22 | 161 | 0.0 | 3.2 | 0.00 | 0.00 | 0.00 | 56 | 1015.9 |
| 20260905233518 | 22 | 212 | 0.0 | 3.2 | 0.00 | 0.00 | 0.00 | 57 | 1015.9 |
| 20260905233040 | 22 | 229 | 1.6 | 4.8 | 0.00 | 0.00 | 0.00 | 56 | 1016.0 |
| 20260905232517 | 22 | 177 | 1.6 | 4.8 | 0.00 | 0.00 | 0.00 | 56 | 1016.0 |
| 20260905232016 | 22 | 210 | 1.6 | 3.2 | 0.00 | 0.00 | 0.00 | 56 | 1016.0 |
| 20260905231537 | 22 | 212 | 1.6 | 3.2 | 0.00 | 0.00 | 0.00 | 56 | 1016.1 |
| 20260905231021 | 22 | 210 | 0.0 | 4.8 | 0.00 | 0.00 | 0.00 | 56 | 1016.0 |
| 20260905230521 | 22 | 193 | 1.6 | 4.8 | 0.00 | 0.00 | 0.00 | 56 | 1016.0 |
| 20260905225519 | 22 | 205 | 0.0 | 4.8 | 0.00 | 0.00 | 0.00 | 57 | 1016.1 |
| 20260905225016 | 22 | 0 | 0.0 | 4.8 | 0.00 | 0.00 | 0.00 | 57 | 1016.1 |
| 20260905224535 | 22 | 238 | 0.0 | 4.8 | 0.00 | 0.00 | 0.00 | 56 | 1016.1 |
| 20260905224032 | 22 | 231 | 0.0 | 3.2 | 0.00 | 0.00 | 0.00 | 57 | 1016.0 |
| 20260905223520 | 22 | 231 | 0.0 | 3.2 | 0.00 | 0.00 | 0.00 | 56 | 1016.0 |
| 20260905223032 | 22 | 230 | 0.0 | 3.2 | 0.00 | 0.00 | 0.00 | 55 | 1016.0 |
| 20260905222518 | 22 | 226 | 1.6 | 4.8 | 0.00 | 0.00 | 0.00 | 55 | 1016.0 |
| 20260905222018 | 22 | 0 | 0.0 | 4.8 | 0.00 | 0.00 | 0.00 | 55 | 1016.0 |
| 20260905221544 | 22 | 213 | 1.6 | 4.8 | 0.00 | 0.00 | 0.00 | 56 | 1015.9 |
| 20260905221018 | 22 | 202 | 1.6 | 4.8 | 0.00 | 0.00 | 0.00 | 55 | 1016.0 |
| 20260905220518 | 22 | 213 | 1.6 | 4.8 | 0.00 | 0.00 | 0.00 | 56 | 1016.1 |
| 20260905220034 | 22 | 203 | 1.6 | 3.2 | 0.00 | 0.00 | 0.00 | 56 | 1016.1 |
| 20260905215520 | 23 | 210 | 1.6 | 3.2 | 0.00 | 0.00 | 0.00 | 56 | 1016.1 |
| 20260905215019 | 22 | 0 | 0.0 | 1.6 | 0.00 | 0.00 | 0.00 | 57 | 1016.2 |
| 20260905214019 | 22 | 210 | 1.6 | 3.2 | 0.00 | 0.00 | 0.00 | 55 | 1016.1 |
| 20260905213517 | 22 | 217 | 1.6 | 3.2 | 0.00 | 0.00 | 0.00 | 55 | 1016.2 |
| 20260905213034 | 22 | 240 | 1.6 | 3.2 | 0.00 | 0.00 | 0.00 | 55 | 1016.1 |
| 20260905212516 | 23 | 234 | 1.6 | 3.2 | 0.00 | 0.00 | 0.00 | 54 | 1016.2 |
| 20260905212017 | 23 | 0 | 0.0 | 3.2 | 0.00 | 0.00 | 0.00 | 54 | 1016.2 |
| 20260905211535 | 23 | 216 | 1.6 | 3.2 | 0.00 | 0.00 | 0.00 | 53 | 1016.2 |
| 20260905211020 | 23 | 0 | 0.0 | 3.2 | 0.00 | 0.00 | 0.00 | 53 | 1016.2 |
| 20260905210520 | 23 | 210 | 1.6 | 4.8 | 0.00 | 0.00 | 0.00 | 54 | 1016.2 |
| 20260905210035 | 23 | 231 | 0.0 | 4.8 | 0.00 | 0.00 | 0.00 | 54 | 1016.2 |
| 20260905205519 | 23 | 233 | 1.6 | 4.8 | 0.00 | 0.00 | 0.00 | 53 | 1016.2 |
| 20260905205020 | 23 | 200 | 0.0 | 3.2 | 0.00 | 0.00 | 0.00 | 55 | 1016.3 |
| 20260905204536 | 23 | 204 | 0.0 | 3.2 | 0.00 | 0.00 | 0.00 | 56 | 1016.4 |
| 20260905204016 | 23 | 193 | 0.0 | 3.2 | 0.00 | 0.00 | 0.00 | 56 | 1016.3 |
| 20260905203518 | 23 | 240 | 0.0 | 3.2 | 0.00 | 0.00 | 0.00 | 56 | 1016.2 |
| 20260905203034 | 23 | 219 | 0.0 | 3.2 | 0.00 | 0.00 | 0.00 | 54 | 1016.3 |
| 20260905202524 | 23 | 204 | 0.0 | 3.2 | 0.00 | 0.00 | 0.00 | 53 | 1016.3 |
| 20260905202019 | 23 | 213 | 0.0 | 3.2 | 0.00 | 0.00 | 0.00 | 52 | 1016.3 |
| 20260905201534 | 24 | 217 | 1.6 | 3.2 | 0.00 | 0.00 | 0.00 | 52 | 1016.3 |
| 20260905201019 | 24 | 214 | 1.6 | 3.2 | 0.00 | 0.00 | 0.00 | 51 | 1016.4 |
| 20260905200526 | 24 | 201 | 0.0 | 4.8 | 0.00 | 0.00 | 0.00 | 51 | 1016.5 |
| 20260905195519 | 24 | 209 | 0.0 | 4.8 | 0.00 | 0.00 | 0.00 | 51 | 1016.5 |
| 20260905195019 | 24 | 151 | 1.6 | 3.2 | 0.00 | 0.00 | 0.00 | 51 | 1016.6 |
| 20260905194020 | 24 | 216 | 0.0 | 1.6 | 0.00 | 0.00 | 0.00 | 52 | 1016.6 |
| 20260905193517 | 24 | 233 | 0.0 | 1.6 | 0.00 | 0.00 | 0.00 | 52 | 1016.6 |
| 20260905193041 | 24 | 233 | 0.0 | 3.2 | 0.00 | 0.00 | 0.00 | 52 | 1016.6 |
| 20260905192520 | 24 | 210 | 0.0 | 6.4 | 0.00 | 0.00 | 0.00 | 52 | 1016.6 |
| 20260905192018 | 25 | 0 | 0.0 | 6.4 | 0.00 | 0.00 | 0.00 | 51 | 1016.5 |
| 20260905191535 | 25 | 228 | 1.6 | 6.4 | 0.00 | 0.00 | 0.00 | 50 | 1016.5 |
| 20260905191021 | 25 | 233 | 1.6 | 6.4 | 0.00 | 0.00 | 0.00 | 49 | 1016.5 |
| 20260905190524 | 25 | 244 | 1.6 | 4.8 | 0.00 | 0.00 | 0.00 | 49 | 1016.5 |
| 20260905190045 | 25 | 218 | 1.6 | 4.8 | 0.00 | 0.00 | 0.00 | 48 | 1016.5 |
| 20260905185517 | 25 | 169 | 1.6 | 4.8 | 0.00 | 0.00 | 0.00 | 48 | 1016.5 |
| 20260905185018 | 25 | 210 | 1.6 | 4.8 | 0.00 | 0.00 | 0.00 | 48 | 1016.5 |
| 20260905184018 | 25 | 0 | 0.0 | 3.2 | 0.00 | 0.00 | 0.00 | 47 | 1016.4 |
| 20260905183518 | 25 | 186 | 0.0 | 3.2 | 0.00 | 0.00 | 0.00 | 47 | 1016.3 |
| 20260905183034 | 25 | 239 | 1.6 | 3.2 | 0.00 | 0.00 | 0.00 | 47 | 1016.3 |
| 20260905182518 | 25 | 213 | 0.0 | 3.2 | 0.00 | 0.00 | 0.00 | 46 | 1016.2 |
| 20260905182020 | 25 | 214 | 0.0 | 1.6 | 0.00 | 0.00 | 0.00 | 46 | 1016.1 |
| 20260905181019 | 25 | 211 | 0.0 | 3.2 | 0.00 | 0.00 | 0.00 | 45 | 1016.0 |
| 20260905180520 | 25 | 222 | 0.0 | 3.2 | 0.00 | 0.00 | 0.00 | 45 | 1016.0 |
| 20260905180053 | 26 | 195 | 1.6 | 3.2 | 0.00 | 0.00 | 0.00 | 44 | 1015.9 |
| 20260905175518 | 26 | 217 | 0.0 | 3.2 | 0.00 | 0.00 | 0.00 | 44 | 1015.9 |
| 20260905175020 | 26 | 0 | 0.0 | 3.2 | 0.00 | 0.00 | 0.00 | 44 | 1015.8 |
| 20260905174533 | 26 | 224 | 0.0 | 3.2 | 0.00 | 0.00 | 0.00 | 43 | 1015.8 |
| 20260905174019 | 26 | 0 | 0.0 | 3.2 | 0.00 | 0.00 | 0.00 | 43 | 1015.8 |
| 20260905173520 | 26 | 251 | 0.0 | 4.8 | 0.00 | 0.00 | 0.00 | 42 | 1015.7 |
| 20260905172518 | 26 | 239 | 3.2 | 4.8 | 0.00 | 0.00 | 0.00 | 42 | 1015.6 |
| 20260905172021 | 26 | 200 | 1.6 | 3.2 | 0.00 | 0.00 | 0.00 | 42 | 1015.5 |
| 20260905171549 | 26 | 229 | 0.0 | 1.6 | 0.00 | 0.00 | 0.00 | 42 | 1015.4 |
| 20260905171016 | 27 | 196 | 0.0 | 1.6 | 0.00 | 0.00 | 0.00 | 42 | 1015.4 |
| 20260905170516 | 27 | 0 | 0.0 | 1.6 | 0.00 | 0.00 | 0.00 | 41 | 1015.4 |
| 20260905170035 | 27 | 232 | 0.0 | 1.6 | 0.00 | 0.00 | 0.00 | 41 | 1015.3 |
| 20260905165518 | 27 | 224 | 0.0 | 1.6 | 0.00 | 0.00 | 0.00 | 41 | 1015.3 |
| 20260905165018 | 27 | 205 | 0.0 | 1.6 | 0.00 | 0.00 | 0.00 | 40 | 1015.3 |
| 20260905164021 | 28 | 205 | 0.0 | 3.2 | 0.00 | 0.00 | 0.00 | 40 | 1015.2 |
| 20260905163521 | 29 | 207 | 1.6 | 3.2 | 0.00 | 0.00 | 0.00 | 40 | 1015.1 |
| 20260905163036 | 29 | 240 | 0.0 | 1.6 | 0.00 | 0.00 | 0.00 | 38 | 1015.1 |
| 20260905162018 | 31 | 290 | 0.0 | 1.6 | 0.00 | 0.00 | 0.00 | 36 | 1015.1 |
| 20260905161535 | 31 | 0 | 0.0 | 0.0 | 0.00 | 0.00 | 0.00 | 35 | 1015.1 |
| 20260905161018 | 31 | 0 | 0.0 | 1.6 | 0.00 | 0.00 | 0.00 | 33 | 1015.2 |
| 20260905160521 | 31 | 0 | 0.0 | 1.6 | 0.00 | 0.00 | 0.00 | 33 | 1015.3 |
| 20260905160049 | 31 | 304 | 1.6 | 1.6 | 0.00 | 0.00 | 0.00 | 34 | 1015.3 |
| 20260905155524 | 31 | 304 | 0.0 | 3.2 | 0.00 | 0.00 | 0.00 | 39 | 1015.3 |
| 20260905155019 | 31 | 0 | 0.0 | 3.2 | 0.00 | 0.00 | 0.00 | 40 | 1015.2 |
| 20260905154021 | 31 | 311 | 0.0 | 4.8 | 0.00 | 0.00 | 0.00 | 37 | 1015.3 |
| 20260905153519 | 31 | 319 | 3.2 | 4.8 | 0.00 | 0.00 | 0.00 | 42 | 1015.2 |
| 20260905153036 | 31 | 316 | 3.2 | 4.8 | 0.00 | 0.00 | 0.00 | 44 | 1015.2 |
| 20260905152518 | 31 | 326 | 3.2 | 4.8 | 0.00 | 0.00 | 0.00 | 40 | 1015.2 |
| 20260905152021 | 32 | 330 | 3.2 | 4.8 | 0.00 | 0.00 | 0.00 | 41 | 1015.2 |
| 20260905151536 | 33 | 317 | 1.6 | 4.8 | 0.00 | 0.00 | 0.00 | 40 | 1015.0 |
| 20260905151020 | 33 | 77 | 0.0 | 4.8 | 0.00 | 0.00 | 0.00 | 30 | 1015.1 |
| 20260905150521 | 33 | 0 | 0.0 | 4.8 | 0.00 | 0.00 | 0.00 | 32 | 1015.1 |
| 20260905145520 | 33 | 110 | 0.0 | 8.0 | 0.00 | 0.00 | 0.00 | 32 | 1015.2 |
| 20260905145018 | 32 | 109 | 0.0 | 8.0 | 0.00 | 0.00 | 0.00 | 33 | 1015.1 |
| 20260905144538 | 32 | 142 | 1.6 | 8.0 | 0.00 | 0.00 | 0.00 | 33 | 1015.0 |
| 20260905144019 | 32 | 119 | 3.2 | 8.0 | 0.00 | 0.00 | 0.00 | 33 | 1015.0 |
| 20260905143519 | 32 | 87 | 1.6 | 9.7 | 0.00 | 0.00 | 0.00 | 33 | 1015.0 |
| 20260905142524 | 32 | 141 | 6.4 | 14.5 | 0.00 | 0.00 | 0.00 | 33 | 1015.0 |
| 20260905142021 | 32 | 75 | 4.8 | 14.5 | 0.00 | 0.00 | 0.00 | 33 | 1015.0 |
| 20260905141538 | 32 | 86 | 4.8 | 14.5 | 0.00 | 0.00 | 0.00 | 33 | 1015.0 |
| 20260905141020 | 32 | 55 | 4.8 | 14.5 | 0.00 | 0.00 | 0.00 | 32 | 1015.0 |
| 20260905140519 | 32 | 60 | 4.8 | 16.1 | 0.00 | 0.00 | 0.00 | 33 | 1014.9 |
| 20260905140038 | 32 | 63 | 6.4 | 16.1 | 0.00 | 0.00 | 0.00 | 33 | 1015.0 |
| 20260905135520 | 32 | 123 | 9.7 | 16.1 | 0.00 | 0.00 | 0.00 | 33 | 1015.1 |
| 20260905135021 | 32 | 98 | 3.2 | 22.5 | 0.00 | 0.00 | 0.00 | 33 | 1015.1 |
| 20260905134533 | 32 | 97 | 9.7 | 22.5 | 0.00 | 0.00 | 0.00 | 33 | 1015.1 |
| 20260905134019 | 32 | 115 | 4.8 | 14.5 | 0.00 | 0.00 | 0.00 | 34 | 1015.0 |
| 20260905133520 | 32 | 98 | 4.8 | 14.5 | 0.00 | 0.00 | 0.00 | 35 | 1015.2 |
| 20260905132518 | 32 | 128 | 6.4 | 19.3 | 0.00 | 0.00 | 0.00 | 35 | 1015.2 |
| 20260905132017 | 32 | 100 | 8.0 | 16.1 | 0.00 | 0.00 | 0.00 | 34 | 1015.3 |
| 20260905131538 | 32 | 91 | 6.4 | 14.5 | 0.00 | 0.00 | 0.00 | 33 | 1015.2 |
| 20260905131018 | 32 | 108 | 6.4 | 14.5 | 0.00 | 0.00 | 0.00 | 33 | 1015.3 |
| 20260905130518 | 32 | 115 | 6.4 | 14.5 | 0.00 | 0.00 | 0.00 | 33 | 1015.4 |
| 20260905130033 | 32 | 89 | 4.8 | 14.5 | 0.00 | 0.00 | 0.00 | 32 | 1015.5 |
| 20260905125519 | 33 | 89 | 4.8 | 14.5 | 0.00 | 0.00 | 0.00 | 31 | 1015.5 |
| 20260905125020 | 32 | 163 | 4.8 | 14.5 | 0.00 | 0.00 | 0.00 | 31 | 1015.5 |
| 20260905124019 | 32 | 108 | 4.8 | 14.5 | 0.00 | 0.00 | 0.00 | 34 | 1015.6 |
| 20260905123518 | 32 | 122 | 6.4 | 14.5 | 0.00 | 0.00 | 0.00 | 35 | 1015.6 |
| 20260905122521 | 32 | 100 | 6.4 | 16.1 | 0.00 | 0.00 | 0.00 | 36 | 1015.7 |
| 20260905122020 | 32 | 81 | 6.4 | 17.7 | 0.00 | 0.00 | 0.00 | 35 | 1015.8 |
| 20260905121540 | 32 | 89 | 6.4 | 17.7 | 0.00 | 0.00 | 0.00 | 36 | 1015.9 |
| 20260905121018 | 32 | 49 | 6.4 | 17.7 | 0.00 | 0.00 | 0.00 | 36 | 1016.0 |
| 20260905120518 | 32 | 84 | 6.4 | 14.5 | 0.00 | 0.00 | 0.00 | 36 | 1016.0 |
| 20260905120051 | 32 | 42 | 4.8 | 14.5 | 0.00 | 0.00 | 0.00 | 37 | 1016.1 |
| 20260905115519 | 32 | 57 | 4.8 | 14.5 | 0.00 | 0.00 | 0.00 | 38 | 1016.2 |
| 20260905115019 | 31 | 41 | 6.4 | 19.3 | 0.00 | 0.00 | 0.00 | 39 | 1016.2 |
| 20260905114018 | 32 | 81 | 6.4 | 16.1 | 0.00 | 0.00 | 0.00 | 36 | 1016.3 |
| 20260905113523 | 32 | 101 | 4.8 | 16.1 | 0.00 | 0.00 | 0.00 | 35 | 1016.3 |
| 20260905113037 | 32 | 127 | 6.4 | 16.1 | 0.00 | 0.00 | 0.00 | 33 | 1016.4 |
| 20260905112519 | 32 | 114 | 6.4 | 16.1 | 0.00 | 0.00 | 0.00 | 32 | 1016.4 |
| 20260905112018 | 32 | 132 | 6.4 | 14.5 | 0.00 | 0.00 | 0.00 | 32 | 1016.4 |
| 20260905111605 | 32 | 53 | 4.8 | 17.7 | 0.00 | 0.00 | 0.00 | 32 | 1016.4 |
| 20260905111017 | 32 | 165 | 9.7 | 19.3 | 0.00 | 0.00 | 0.00 | 32 | 1016.4 |
| 20260905110521 | 32 | 71 | 9.7 | 19.3 | 0.00 | 0.00 | 0.00 | 32 | 1016.5 |
| 20260905110033 | 32 | 105 | 4.8 | 16.1 | 0.00 | 0.00 | 0.00 | 33 | 1016.5 |
| 20260905105521 | 32 | 82 | 8.0 | 17.7 | 0.00 | 0.00 | 0.00 | 31 | 1016.5 |
| 20260905105019 | 32 | 45 | 4.8 | 17.7 | 0.00 | 0.00 | 0.00 | 31 | 1016.5 |
| 20260905104019 | 32 | 99 | 8.0 | 17.7 | 0.00 | 0.00 | 0.00 | 32 | 1016.6 |
| 20260905103521 | 32 | 113 | 6.4 | 17.7 | 0.00 | 0.00 | 0.00 | 32 | 1016.6 |
| 20260905103039 | 32 | 93 | 8.0 | 17.7 | 0.00 | 0.00 | 0.00 | 32 | 1016.5 |
| 20260905102518 | 32 | 117 | 6.4 | 17.7 | 0.00 | 0.00 | 0.00 | 33 | 1016.6 |
| 20260905102018 | 32 | 84 | 8.0 | 17.7 | 0.00 | 0.00 | 0.00 | 32 | 1016.5 |
| 20260905101534 | 32 | 162 | 3.2 | 16.1 | 0.00 | 0.00 | 0.00 | 32 | 1016.6 |
| 20260905101023 | 32 | 102 | 8.0 | 16.1 | 0.00 | 0.00 | 0.00 | 35 | 1016.7 |
| 20260905100519 | 31 | 86 | 4.8 | 14.5 | 0.00 | 0.00 | 0.00 | 35 | 1016.7 |
| 20260905100034 | 31 | 137 | 6.4 | 14.5 | 0.00 | 0.00 | 0.00 | 35 | 1016.8 |
| 20260905095520 | 31 | 85 | 9.7 | 14.5 | 0.00 | 0.00 | 0.00 | 35 | 1016.8 |
| 20260905095024 | 31 | 72 | 6.4 | 12.9 | 0.00 | 0.00 | 0.00 | 35 | 1016.8 |
| 20260905094019 | 31 | 156 | 4.8 | 16.1 | 0.00 | 0.00 | 0.00 | 37 | 1017.0 |
| 20260905093516 | 31 | 96 | 6.4 | 12.9 | 0.00 | 0.00 | 0.00 | 37 | 1017.0 |
| 20260905093040 | 31 | 78 | 4.8 | 16.1 | 0.00 | 0.00 | 0.00 | 39 | 1017.1 |
| 20260905092517 | 31 | 52 | 4.8 | 16.1 | 0.00 | 0.00 | 0.00 | 39 | 1017.1 |
| 20260905092017 | 31 | 119 | 4.8 | 11.3 | 0.00 | 0.00 | 0.00 | 38 | 1017.1 |
| 20260905091534 | 31 | 67 | 3.2 | 12.9 | 0.00 | 0.00 | 0.00 | 39 | 1017.1 |
| 20260905091018 | 30 | 65 | 4.8 | 12.9 | 0.00 | 0.00 | 0.00 | 41 | 1017.2 |
| 20260905090519 | 30 | 150 | 6.4 | 12.9 | 0.00 | 0.00 | 0.00 | 39 | 1017.1 |
| 20260905085518 | 30 | 52 | 6.4 | 11.3 | 0.00 | 0.00 | 0.00 | 41 | 1017.2 |
| 20260905085019 | 30 | 27 | 3.2 | 8.0 | 0.00 | 0.00 | 0.00 | 43 | 1017.2 |
| 20260905084535 | 30 | 70 | 0.0 | 8.0 | 0.00 | 0.00 | 0.00 | 48 | 1017.2 |
| 20260905084016 | 30 | 61 | 3.2 | 6.4 | 0.00 | 0.00 | 0.00 | 44 | 1017.3 |
| 20260905083520 | 29 | 88 | 1.6 | 6.4 | 0.00 | 0.00 | 0.00 | 50 | 1017.3 |
| 20260905083032 | 28 | 46 | 1.6 | 8.0 | 0.00 | 0.00 | 0.00 | 52 | 1017.4 |
| 20260905082519 | 28 | 44 | 3.2 | 8.0 | 0.00 | 0.00 | 0.00 | 54 | 1017.4 |
| 20260905082018 | 28 | 30 | 3.2 | 8.0 | 0.00 | 0.00 | 0.00 | 53 | 1017.4 |
| 20260905081019 | 28 | 20 | 4.8 | 8.0 | 0.00 | 0.00 | 0.00 | 54 | 1017.4 |